Time,TemperatureF,DewpointF,PressureIn,WindDirection,WindDirectionDegrees,WindSpeedMPH,WindSpeedGustMPH,Humidity,HourlyPrecipIn,Conditions,Clouds,dailyrainin,SolarRadiationWatts/m^2,SoftwareType,DateUTC
2013-06-08 00:12:00,78.0,47.0,-100.00,West,281,23.0,31.0,33,0.00,,,0.00,0.000000,,2013-06-08 07:12:00,
2013-06-08 00:22:00,78.0,47.0,-100.00,West,281,23.0,31.0,33,0.00,,,0.00,0.000000,,2013-06-08 07:22:00,
2013-06-08 00:32:00,78.0,47.0,-100.00,West,281,23.0,31.0,33,0.00,,,0.00,0.000000,,2013-06-08 07:32:00,
2013-06-08 00:42:00,78.0,47.0,-100.00,West,281,23.0,31.0,33,0.00,,,0.00,0.000000,,2013-06-08 07:42:00,
2013-06-08 01:12:00,76.0,50.0,-100.00,WNW,282,22.0,30.0,40,0.00,,,0.00,0.000000,,2013-06-08 08:12:00,
2013-06-08 01:22:00,76.0,50.0,-100.00,WNW,282,22.0,30.0,40,0.00,,,0.00,0.000000,,2013-06-08 08:22:00,
2013-06-08 01:32:00,76.0,50.0,-100.00,WNW,282,22.0,30.0,40,0.00,,,0.00,0.000000,,2013-06-08 08:32:00,
2013-06-08 01:42:00,76.0,50.0,-100.00,WNW,282,22.0,30.0,40,0.00,,,0.00,0.000000,,2013-06-08 08:42:00,
2013-06-08 01:50:00,77.0,43.0,-100.00,WNW,285,19.0,25.0,30,0.00,,,0.00,0.000000,,2013-06-08 08:50:00,
2013-06-08 02:12:00,77.0,43.0,-100.00,WNW,285,19.0,25.0,30,0.00,,,0.00,0.000000,,2013-06-08 09:12:00,
2013-06-08 02:22:00,77.0,43.0,-100.00,WNW,285,19.0,25.0,30,0.00,,,0.00,0.000000,,2013-06-08 09:22:00,
2013-06-08 02:33:00,77.0,43.0,-100.00,WNW,285,19.0,25.0,30,0.00,,,0.00,0.000000,,2013-06-08 09:33:00,
2013-06-08 02:42:00,77.0,43.0,-100.00,WNW,285,19.0,25.0,30,0.00,,,0.00,0.000000,,2013-06-08 09:42:00,
2013-06-08 02:50:00,72.0,48.0,-100.00,WNW,286,17.0,23.0,42,0.00,,,0.00,0.000000,,2013-06-08 09:50:00,
2013-06-08 03:12:00,72.0,48.0,-100.00,WNW,286,17.0,23.0,42,0.00,,,0.00,0.000000,,2013-06-08 10:12:00,
2013-06-08 03:22:00,72.0,48.0,-100.00,WNW,286,17.0,23.0,42,0.00,,,0.00,0.000000,,2013-06-08 10:22:00,
2013-06-08 03:33:00,72.0,48.0,-100.00,WNW,286,17.0,23.0,42,0.00,,,0.00,0.000000,,2013-06-08 10:33:00,
2013-06-08 03:42:00,72.0,48.0,-100.00,WNW,286,17.0,23.0,42,0.00,,,0.00,0.000000,,2013-06-08 10:42:00,
2013-06-08 03:50:00,77.0,41.0,-100.00,WNW,292,11.0,20.0,28,0.00,,,0.00,0.000000,,2013-06-08 10:50:00,
2013-06-08 04:12:00,77.0,41.0,-100.00,WNW,292,11.0,20.0,28,0.00,,,0.00,0.000000,,2013-06-08 11:12:00,
2013-06-08 04:22:00,77.0,41.0,-100.00,WNW,292,11.0,20.0,28,0.00,,,0.00,0.000000,,2013-06-08 11:22:00,
2013-06-08 04:32:00,77.0,41.0,-100.00,WNW,292,11.0,20.0,28,0.00,,,0.00,0.000000,,2013-06-08 11:32:00,
2013-06-08 04:42:00,77.0,41.0,-100.00,WNW,292,11.0,20.0,28,0.00,,,0.00,0.000000,,2013-06-08 11:42:00,
2013-06-08 04:50:00,76.0,38.0,-100.00,WNW,295,9.0,16.0,25,0.00,,,0.00,0.000000,,2013-06-08 11:50:00,
2013-06-08 05:12:00,76.0,38.0,-100.00,WNW,295,9.0,16.0,25,0.00,,,0.00,0.000000,,2013-06-08 12:12:00,
2013-06-08 05:22:00,76.0,38.0,-100.00,WNW,295,9.0,16.0,25,0.00,,,0.00,0.000000,,2013-06-08 12:22:00,
2013-06-08 05:32:00,76.0,38.0,-100.00,WNW,295,9.0,16.0,25,0.00,,,0.00,0.000000,,2013-06-08 12:32:00,
2013-06-08 05:42:00,76.0,38.0,-100.00,WNW,295,9.0,16.0,25,0.00,,,0.00,0.000000,,2013-06-08 12:42:00,
2013-06-08 05:50:00,75.0,35.0,-100.00,NW,307,5.0,11.0,23,0.00,,,-99.99,3.000000,,2013-06-08 12:50:00,
2013-06-08 06:12:00,75.0,35.0,-100.00,NW,307,5.0,11.0,23,0.00,,,-99.99,3.000000,,2013-06-08 13:12:00,
2013-06-08 06:22:00,75.0,35.0,-100.00,NW,307,5.0,11.0,23,0.00,,,-99.99,3.000000,,2013-06-08 13:22:00,
2013-06-08 06:32:00,75.0,35.0,-100.00,NW,307,5.0,11.0,23,0.00,,,-99.99,3.000000,,2013-06-08 13:32:00,
2013-06-08 06:42:00,75.0,35.0,-100.00,NW,307,5.0,11.0,23,0.00,,,-99.99,3.000000,,2013-06-08 13:42:00,
2013-06-08 06:50:00,79.0,32.0,-100.00,WNW,301,5.0,10.0,18,0.00,,,0.00,100.000000,,2013-06-08 13:50:00,
2013-06-08 07:12:00,79.0,32.0,-100.00,WNW,301,5.0,10.0,18,0.00,,,0.00,100.000000,,2013-06-08 14:12:00,
2013-06-08 07:22:00,79.0,32.0,-100.00,WNW,301,5.0,10.0,18,0.00,,,0.00,100.000000,,2013-06-08 14:22:00,
2013-06-08 07:42:00,79.0,32.0,-100.00,WNW,301,5.0,10.0,18,0.00,,,0.00,100.000000,,2013-06-08 14:42:00,
2013-06-08 08:12:00,86.0,29.0,-100.00,NW,309,3.0,8.0,13,0.00,,,0.00,355.000000,,2013-06-08 15:12:00,
2013-06-08 08:22:00,86.0,29.0,-100.00,NW,309,3.0,8.0,13,0.00,,,0.00,355.000000,,2013-06-08 15:22:00,
2013-06-08 08:50:00,82.0,47.0,-100.00,ESE,122,6.0,13.0,30,0.00,,,0.00,599.000000,,2013-06-08 15:50:00,
2013-06-08 09:12:00,82.0,47.0,-100.00,ESE,122,6.0,13.0,30,0.00,,,0.00,599.000000,,2013-06-08 16:12:00,
2013-06-08 09:23:00,82.0,47.0,-100.00,ESE,122,6.0,13.0,30,0.00,,,0.00,599.000000,,2013-06-08 16:23:00,
2013-06-08 09:32:00,82.0,47.0,-100.00,ESE,122,6.0,13.0,30,0.00,,,0.00,599.000000,,2013-06-08 16:32:00,
2013-06-08 09:42:00,82.0,47.0,-100.00,ESE,122,6.0,13.0,30,0.00,,,0.00,599.000000,,2013-06-08 16:42:00,
2013-06-08 09:50:00,83.0,48.0,-100.00,SE,132,7.0,11.0,30,0.00,,,0.00,821.000000,,2013-06-08 16:50:00,
2013-06-08 10:12:00,83.0,48.0,-100.00,SE,132,7.0,11.0,30,0.00,,,0.00,821.000000,,2013-06-08 17:12:00,
2013-06-08 10:22:00,83.0,48.0,-100.00,SE,132,7.0,11.0,30,0.00,,,0.00,821.000000,,2013-06-08 17:22:00,
2013-06-08 10:32:00,83.0,48.0,-100.00,SE,132,7.0,11.0,30,0.00,,,0.00,821.000000,,2013-06-08 17:32:00,
2013-06-08 10:42:00,83.0,48.0,-100.00,SE,132,7.0,11.0,30,0.00,,,0.00,821.000000,,2013-06-08 17:42:00,
2013-06-08 11:12:00,86.0,46.0,-100.00,SE,130,6.0,12.0,25,0.00,,,0.00,1007.000000,,2013-06-08 18:12:00,
2013-06-08 11:22:00,86.0,46.0,-100.00,SE,130,6.0,12.0,25,0.00,,,0.00,1007.000000,,2013-06-08 18:22:00,
2013-06-08 11:32:00,86.0,46.0,-100.00,SE,130,6.0,12.0,25,0.00,,,0.00,1007.000000,,2013-06-08 18:32:00,
2013-06-08 11:50:00,91.0,47.0,-100.00,ESE,114,5.0,9.0,22,0.00,,,0.00,1135.000000,,2013-06-08 18:50:00,
2013-06-08 12:12:00,91.0,47.0,-100.00,ESE,114,5.0,9.0,22,0.00,,,0.00,1135.000000,,2013-06-08 19:12:00,
2013-06-08 12:22:00,91.0,47.0,-100.00,ESE,114,5.0,9.0,22,0.00,,,0.00,1135.000000,,2013-06-08 19:22:00,
2013-06-08 12:32:00,91.0,47.0,-100.00,ESE,114,5.0,9.0,22,0.00,,,0.00,1135.000000,,2013-06-08 19:32:00,
2013-06-08 12:42:00,91.0,47.0,-100.00,ESE,114,5.0,9.0,22,0.00,,,0.00,1135.000000,,2013-06-08 19:42:00,
2013-06-08 12:50:00,94.0,47.0,-100.00,SE,138,6.0,11.0,20,0.00,,,0.00,1195.000000,,2013-06-08 19:50:00,
2013-06-08 13:12:00,94.0,47.0,-100.00,SE,138,6.0,11.0,20,0.00,,,0.00,1195.000000,,2013-06-08 20:12:00,
2013-06-08 13:22:00,94.0,47.0,-100.00,SE,138,6.0,11.0,20,0.00,,,0.00,1195.000000,,2013-06-08 20:22:00,
2013-06-08 13:32:00,94.0,47.0,-100.00,SE,138,6.0,11.0,20,0.00,,,0.00,1195.000000,,2013-06-08 20:32:00,
2013-06-08 13:42:00,94.0,47.0,-100.00,SE,138,6.0,11.0,20,0.00,,,0.00,1195.000000,,2013-06-08 20:42:00,
2013-06-08 13:50:00,96.0,44.0,-100.00,SE,125,5.0,13.0,17,0.00,,,0.00,1189.000000,,2013-06-08 20:50:00,
2013-06-08 14:12:00,96.0,44.0,-100.00,SE,125,5.0,13.0,17,0.00,,,0.00,1189.000000,,2013-06-08 21:12:00,
2013-06-08 14:22:00,96.0,44.0,-100.00,SE,125,5.0,13.0,17,0.00,,,0.00,1189.000000,,2013-06-08 21:22:00,
2013-06-08 14:33:00,96.0,44.0,-100.00,SE,125,5.0,13.0,17,0.00,,,0.00,1189.000000,,2013-06-08 21:33:00,
2013-06-08 14:43:00,96.0,44.0,-100.00,SE,125,5.0,13.0,17,0.00,,,0.00,1189.000000,,2013-06-08 21:43:00,
2013-06-08 14:50:00,98.0,41.0,-100.00,ESE,115,7.0,12.0,14,0.00,,,0.00,1114.000000,,2013-06-08 21:50:00,
2013-06-08 15:12:00,98.0,41.0,-100.00,ESE,115,7.0,12.0,14,0.00,,,0.00,1114.000000,,2013-06-08 22:12:00,
2013-06-08 15:22:00,98.0,41.0,-100.00,ESE,115,7.0,12.0,14,0.00,,,0.00,1114.000000,,2013-06-08 22:22:00,
2013-06-08 15:33:00,98.0,41.0,-100.00,ESE,115,7.0,12.0,14,0.00,,,0.00,1114.000000,,2013-06-08 22:33:00,
2013-06-08 15:42:00,98.0,41.0,-100.00,ESE,115,7.0,12.0,14,0.00,,,0.00,1114.000000,,2013-06-08 22:42:00,
2013-06-08 15:50:00,98.0,42.0,-100.00,SE,129,8.0,15.0,15,0.00,,,0.00,960.000000,,2013-06-08 22:50:00,
2013-06-08 16:12:00,98.0,42.0,-100.00,SE,129,8.0,15.0,15,0.00,,,0.00,960.000000,,2013-06-08 23:12:00,
2013-06-08 16:22:00,98.0,42.0,-100.00,SE,129,8.0,15.0,15,0.00,,,0.00,960.000000,,2013-06-08 23:22:00,
2013-06-08 16:32:00,98.0,42.0,-100.00,SE,129,8.0,15.0,15,0.00,,,0.00,960.000000,,2013-06-08 23:32:00,
2013-06-08 16:42:00,98.0,42.0,-100.00,SE,129,8.0,15.0,15,0.00,,,0.00,960.000000,,2013-06-08 23:42:00,
2013-06-08 16:50:00,99.0,48.0,-100.00,SW,228,4.0,15.0,18,0.00,,,0.00,745.000000,,2013-06-08 23:50:00,
2013-06-08 17:12:00,99.0,48.0,-100.00,SW,228,4.0,15.0,18,0.00,,,0.00,745.000000,,2013-06-09 00:12:00,
2013-06-08 17:22:00,99.0,48.0,-100.00,SW,228,4.0,15.0,18,0.00,,,0.00,745.000000,,2013-06-09 00:22:00,
2013-06-08 17:32:00,99.0,48.0,-100.00,SW,228,4.0,15.0,18,0.00,,,0.00,745.000000,,2013-06-09 00:32:00,
2013-06-08 17:42:00,99.0,48.0,-100.00,SW,228,4.0,15.0,18,0.00,,,0.00,745.000000,,2013-06-09 00:42:00,
2013-06-08 17:50:00,93.0,51.0,-100.00,West,261,11.0,17.0,24,0.00,,,0.00,94.000000,,2013-06-09 00:50:00,
2013-06-08 18:12:00,93.0,51.0,-100.00,West,261,11.0,17.0,24,0.00,,,0.00,94.000000,,2013-06-09 01:12:00,
2013-06-08 18:22:00,93.0,51.0,-100.00,West,261,11.0,17.0,24,0.00,,,0.00,94.000000,,2013-06-09 01:22:00,
2013-06-08 18:32:00,93.0,51.0,-100.00,West,261,11.0,17.0,24,0.00,,,0.00,94.000000,,2013-06-09 01:32:00,
2013-06-08 18:42:00,93.0,51.0,-100.00,West,261,11.0,17.0,24,0.00,,,0.00,94.000000,,2013-06-09 01:42:00,
2013-06-08 18:50:00,86.0,52.0,-100.00,West,268,13.0,23.0,31,0.00,,,0.00,68.000000,,2013-06-09 01:50:00,
2013-06-08 19:12:00,86.0,52.0,-100.00,West,268,13.0,23.0,31,0.00,,,0.00,68.000000,,2013-06-09 02:12:00,
2013-06-08 19:22:00,86.0,52.0,-100.00,West,268,13.0,23.0,31,0.00,,,0.00,68.000000,,2013-06-09 02:22:00,
2013-06-08 19:32:00,86.0,52.0,-100.00,West,268,13.0,23.0,31,0.00,,,0.00,68.000000,,2013-06-09 02:32:00,
2013-06-08 19:42:00,86.0,52.0,-100.00,West,268,13.0,23.0,31,0.00,,,0.00,68.000000,,2013-06-09 02:42:00,
2013-06-08 19:50:00,79.0,54.0,-100.00,West,269,14.0,20.0,42,0.00,,,0.00,41.000000,,2013-06-09 02:50:00,
2013-06-08 20:12:00,79.0,54.0,-100.00,West,269,14.0,20.0,42,0.00,,,0.00,41.000000,,2013-06-09 03:12:00,
2013-06-08 20:22:00,79.0,54.0,-100.00,West,269,14.0,20.0,42,0.00,,,0.00,41.000000,,2013-06-09 03:22:00,
2013-06-08 20:32:00,79.0,54.0,-100.00,West,269,14.0,20.0,42,0.00,,,0.00,41.000000,,2013-06-09 03:32:00,
2013-06-08 20:43:00,79.0,54.0,-100.00,West,269,14.0,20.0,42,0.00,,,0.00,41.000000,,2013-06-09 03:43:00,
2013-06-08 20:50:00,77.0,53.0,-100.00,West,281,13.0,18.0,43,0.00,,,0.00,1.000000,,2013-06-09 03:50:00,
2013-06-08 21:12:00,77.0,53.0,-100.00,West,281,13.0,18.0,43,0.00,,,0.00,1.000000,,2013-06-09 04:12:00,
2013-06-08 21:22:00,77.0,53.0,-100.00,West,281,13.0,18.0,43,0.00,,,0.00,1.000000,,2013-06-09 04:22:00,
2013-06-08 21:32:00,77.0,53.0,-100.00,West,281,13.0,18.0,43,0.00,,,0.00,1.000000,,2013-06-09 04:32:00,
2013-06-08 21:42:00,77.0,53.0,-100.00,West,281,13.0,18.0,43,0.00,,,0.00,1.000000,,2013-06-09 04:42:00,
2013-06-08 21:50:00,74.0,52.0,-100.00,WNW,285,11.0,20.0,47,0.00,,,0.00,0.000000,,2013-06-09 04:50:00,
2013-06-08 22:12:00,74.0,52.0,-100.00,WNW,285,11.0,20.0,47,0.00,,,0.00,0.000000,,2013-06-09 05:12:00,
2013-06-08 22:22:00,74.0,52.0,-100.00,WNW,285,11.0,20.0,47,0.00,,,0.00,0.000000,,2013-06-09 05:22:00,
2013-06-08 22:32:00,74.0,52.0,-100.00,WNW,285,11.0,20.0,47,0.00,,,0.00,0.000000,,2013-06-09 05:32:00,
2013-06-08 22:42:00,74.0,52.0,-100.00,WNW,285,11.0,20.0,47,0.00,,,0.00,0.000000,,2013-06-09 05:42:00,
2013-06-08 22:50:00,70.0,54.0,-100.00,WNW,302,8.0,14.0,57,0.00,,,0.00,0.000000,,2013-06-09 05:50:00,
2013-06-08 23:12:00,70.0,54.0,-100.00,WNW,302,8.0,14.0,57,0.00,,,0.00,0.000000,,2013-06-09 06:12:00,
2013-06-08 23:22:00,70.0,54.0,-100.00,WNW,302,8.0,14.0,57,0.00,,,0.00,0.000000,,2013-06-09 06:22:00,
2013-06-08 23:32:00,70.0,54.0,-100.00,WNW,302,8.0,14.0,57,0.00,,,0.00,0.000000,,2013-06-09 06:32:00,
2013-06-08 23:42:00,70.0,54.0,-100.00,WNW,302,8.0,14.0,57,0.00,,,0.00,0.000000,,2013-06-09 06:42:00,
2013-06-08 23:50:00,74.0,54.0,-100.00,WNW,298,6.0,10.0,49,0.00,,,-99.99,0.000000,,2013-06-09 06:50:00,